VA7NIC-10 Weather Reports


Display with metric or nautical units.
time (UTC)temp
F
wind
direction
speed
MPH
gust
MPH
rain 1hr
in
rain 24hr
in
rain mn
in
humidity
%
barometer
mb
20260506090701 51 359 0.0 0.0 0.00 0.00 0.00 88 1015.9
20260506085201 51 359 0.0 0.0 0.00 0.00 0.00 87 1015.6
20260506083701 51 359 0.0 0.0 0.00 0.00 0.00 87 1015.5
20260506082201 52 359 0.0 0.0 0.00 0.00 0.00 87 1015.5
20260506080701 52 359 0.0 0.0 0.00 0.00 0.00 86 1015.4
20260506072202 53 359 0.0 0.0 0.00 0.00 0.00 86 1015.0
20260506070702 53 359 0.0 0.0 0.00 0.00 0.00 85 1014.9
20260506062202 54 359 0.0 0.0 0.00 0.00 0.00 84 1014.6
20260506060701 54 359 0.0 0.0 0.00 0.00 0.00 83 1014.6
20260506050701 56 359 0.0 0.0 0.00 0.00 0.00 80 1014.0
20260506043701 57 359 0.0 0.0 0.00 0.00 0.00 77 1013.8
20260506042201 58 359 0.0 0.0 0.00 0.00 0.00 76 1013.5
20260506040701 59 359 0.0 0.0 0.00 0.00 0.00 75 1013.3
20260506035201 59 359 0.0 0.0 0.00 0.00 0.00 74 1013.0
20260506033702 60 359 0.0 0.0 0.00 0.00 0.00 72 1012.9
20260506032202 61 359 0.0 0.0 0.00 0.00 0.00 70 1012.8
20260506030702 62 359 0.0 0.0 0.00 0.00 0.00 68 1012.5
20260506025202 63 359 0.0 0.0 0.00 0.00 0.00 68 1012.3
20260506023701 64 359 0.0 0.0 0.00 0.00 0.00 67 1012.2
20260506022201 65 359 0.0 0.0 0.00 0.00 0.00 65 1012.1
20260506020701 65 359 0.0 0.0 0.00 0.00 0.00 65 1012.0
20260506015201 66 359 0.0 0.0 0.00 0.00 0.00 65 1011.9
20260506013701 66 359 0.0 0.0 0.00 0.00 0.00 65 1012.0
20260506012201 67 359 0.0 0.0 0.00 0.00 0.00 64 1012.0
20260506010701 67 359 0.0 0.0 0.00 0.00 0.00 64 1012.0
20260506005201 68 359 0.0 0.0 0.00 0.00 0.00 64 1012.2
20260506003701 68 359 0.0 0.0 0.00 0.00 0.00 63 1012.1
20260506002201 68 359 0.0 0.0 0.00 0.00 0.00 62 1012.1
20260506000701 69 359 0.0 1.0 0.00 0.00 0.00 62 1012.2
20260505235202 69 359 0.0 0.0 0.00 0.00 0.00 62 1012.3
20260505233702 69 5 0.0 0.0 0.00 0.00 0.00 61 1012.3
20260505232202 70 15 0.0 0.0 0.00 0.00 0.00 62 1012.3
20260505230702 70 356 0.0 0.0 0.00 0.00 0.00 60 1012.4
20260505225202 70 359 0.0 0.0 0.00 0.00 0.00 62 1012.6
20260505223701 70 359 0.0 0.0 0.00 0.00 0.00 62 1012.7
20260505222201 70 359 0.0 0.0 0.00 0.00 0.00 62 1012.7
20260505220701 70 359 0.0 0.0 0.00 0.00 0.00 63 1012.8
20260505215201 69 359 0.0 0.0 0.00 0.00 0.00 63 1012.9
20260505213701 69 359 0.0 0.0 0.00 0.00 0.00 63 1013.1
20260505212201 69 359 0.0 0.0 0.00 0.00 0.00 60 1013.1
20260505210701 70 359 0.0 0.0 0.00 0.00 0.00 58 1013.3
20260505205201 70 359 0.0 0.0 0.00 0.00 0.00 61 1013.3
20260505203701 70 359 0.0 1.0 0.00 0.00 0.00 60 1013.5
20260505202201 67 359 0.0 0.0 0.00 0.00 0.00 66 1013.5
20260505200702 66 359 0.0 0.0 0.00 0.00 0.00 68 1013.6
20260505195202 66 359 0.0 0.0 0.00 0.00 0.00 68 1013.7
20260505193702 66 359 0.0 0.0 0.00 0.00 0.00 70 1013.8
20260505192202 65 359 0.0 0.0 0.00 0.00 0.00 71 1013.8
20260505190701 64 359 0.0 0.0 0.00 0.00 0.00 72 1013.9
20260505185202 64 359 0.0 0.0 0.00 0.00 0.00 73 1014.0
20260505183701 62 359 0.0 0.0 0.00 0.00 0.00 76 1014.1
20260505182201 61 359 0.0 0.0 0.00 0.00 0.00 78 1014.0
20260505180701 59 359 0.0 0.0 0.00 0.00 0.00 81 1014.0
20260505175201 58 359 0.0 0.0 0.00 0.00 0.00 82 1014.2
20260505173701 57 359 0.0 0.0 0.00 0.00 0.00 84 1014.2
20260505172201 56 359 0.0 0.0 0.00 0.00 0.00 85 1014.2
20260505170701 55 359 0.0 0.0 0.00 0.00 0.00 86 1014.2
20260505165201 55 359 0.0 0.0 0.00 0.00 0.00 86 1014.2
20260505163701 54 359 0.0 0.0 0.00 0.00 0.00 86 1014.2
20260505162202 54 359 0.0 0.0 0.00 0.00 0.00 86 1014.1
20260505160702 54 359 0.0 0.0 0.00 0.00 0.00 87 1014.0
20260505152202 53 359 0.0 0.0 0.00 0.00 0.00 87 1013.7
20260505150701 53 359 0.0 0.0 0.00 0.00 0.00 88 1013.5
20260505123702 51 359 0.0 0.0 0.00 0.00 0.00 88 1012.2
20260505122202 51 359 0.0 0.0 0.00 0.00 0.00 88 1012.2
20260505120702 51 359 0.0 0.0 0.00 0.00 0.00 88 1012.1
20260505115202 51 359 0.0 0.0 0.00 0.00 0.00 88 1012.0
20260505113701 52 359 0.0 0.0 0.00 0.00 0.00 88 1011.9
20260505112201 52 359 0.0 0.0 0.00 0.00 0.00 88 1011.8
20260505110701 52 359 0.0 0.0 0.00 0.00 0.00 88 1011.8
20260505102201 52 359 0.0 0.0 0.00 0.00 0.00 87 1011.6
20260505100701 52 359 0.0 0.0 0.00 0.00 0.00 87 1011.4
20260505095201 53 359 0.0 0.0 0.00 0.00 0.00 87 1011.2
20260505093701 53 359 0.0 0.0 0.00 0.00 0.00 87 1011.2
20260505092201 53 359 0.0 0.0 0.00 0.00 0.00 87 1011.1